Weather History for Morris, MN

Change the Weather History Date:

Friday, September 6, 2013

  Actual Average Record
Temperature  
Mean Temperature 76 °F -  
Max Temperature 89 °F 74 °F 93 °F (2002)
Min Temperature 64 °F 52 °F 39 °F (2008)
Cooling Degree Days 12    
Growing Degree Days 26 (Base 50)    
Moisture  
Dew Point 67 °F    
Average Humidity 76    
Maximum Humidity 94    
Minimum Humidity 49    
Precipitation  
Precipitation 0.00 in - - ()
Sea Level Pressure  
Sea Level Pressure 29.93 in    
Wind  
Wind Speed 7 mph (SSE)    
Max Wind Speed 12 mph    
Max Gust Speed -    
Visibility 10 miles    
Events      
Averages and records for this station are not official NWS values.
T = Trace of Precipitation, MM = Missing Value Source: NWS Daily Summary

Daily Weather History Graph

Daily Weather History Graph

Search for Another Location

Airport:

Trip Planner

Search our weather history database for the weather conditions in past years. The results will help you decide how hot, cold, wet, or windy it might be!

Date:

Astronomy

Sep. 06, 2013 Rise Set
Actual Time 6:51 AM CDT 7:51 PM CDT
Civil Twilight 6:21 AM CDT 8:21 PM CDT
Nautical Twilight 5:45 AM CDT 8:57 PM CDT
Astronomical Twilight 5:06 AM CDT 9:35 PM CDT
Moon 8:11 AM CDT (9/6) 8:08 PM CDT (9/6)
Length of Visible Light 14h 00m
Length of Day
13h 00m
New Moon, 2% of the Moon is Illuminated
Sep 6
New Moon
Sep 12
First Quarter
Sep 19
Full
Sep 26
Last Quarter
Oct 4
New

Hourly Weather History & Observations

Time (CDT) Temp. Heat Index Dew Point Humidity Pressure Visibility Wind Dir Wind Speed Gust Speed Precip Events Conditions
12:08 AM 69.8 °F - 66.2 °F 88% 30.04 in 10.0 mi SE 6.9 mph - N/A   Clear
12:27 AM 68.0 °F - 66.2 °F 94% 30.03 in 10.0 mi SSE 8.1 mph - N/A   Clear
12:47 AM 68.0 °F - 66.2 °F 94% 30.03 in 10.0 mi SE 6.9 mph - N/A   Clear
1:07 AM 68.0 °F - 66.2 °F 94% 30.04 in 10.0 mi SE 5.8 mph - N/A   Clear
1:28 AM 68.0 °F - 64.4 °F 88% 30.03 in 10.0 mi SSE 6.9 mph - N/A   Clear
1:47 AM 68.0 °F - 64.4 °F 88% 30.03 in 10.0 mi SE 8.1 mph - N/A   Clear
2:07 AM 66.2 °F - 64.4 °F 94% 30.03 in 10.0 mi SE 8.1 mph - N/A   Clear
2:27 AM 66.2 °F - 64.4 °F 94% 30.03 in 10.0 mi SE 8.1 mph - N/A   Clear
2:47 AM 66.2 °F - 64.4 °F 94% 30.03 in 10.0 mi SSE 6.9 mph - N/A   Clear
3:07 AM 66.2 °F - 64.4 °F 94% 30.02 in 10.0 mi SE 8.1 mph - N/A   Clear
3:27 AM 66.2 °F - 64.4 °F 94% 30.02 in 10.0 mi SE 8.1 mph - N/A   Scattered Clouds
3:47 AM 66.2 °F - 64.4 °F 94% 30.01 in 10.0 mi SSE 8.1 mph - N/A   Scattered Clouds
4:08 AM 66.2 °F - 64.4 °F 94% 30.01 in 10.0 mi SSE 8.1 mph - N/A   Scattered Clouds
4:27 AM 66.2 °F - 64.4 °F 94% 30.00 in 10.0 mi SSE 8.1 mph - N/A   Clear
4:47 AM 66.2 °F - 64.4 °F 94% 30.00 in 10.0 mi SSE 8.1 mph - N/A   Clear
5:07 AM 66.2 °F - 64.4 °F 94% 30.00 in 10.0 mi SSE 9.2 mph - N/A   Scattered Clouds
5:27 AM 66.2 °F - 64.4 °F 94% 29.99 in 10.0 mi SSE 9.2 mph - N/A   Scattered Clouds
5:48 AM 66.2 °F - 64.4 °F 94% 29.99 in 10.0 mi SSE 9.2 mph - N/A   Clear
6:07 AM 66.2 °F - 62.6 °F 88% 29.98 in 10.0 mi SE 8.1 mph - N/A   Clear
6:28 AM 66.2 °F - 62.6 °F 88% 29.98 in 10.0 mi SE 6.9 mph - N/A   Clear
6:47 AM 64.4 °F - 62.6 °F 94% 29.98 in 10.0 mi SE 8.1 mph - N/A   Clear
7:07 AM 66.2 °F - 62.6 °F 88% 29.98 in 10.0 mi SE 6.9 mph - N/A   Clear
7:27 AM 66.2 °F - 62.6 °F 88% 29.97 in 10.0 mi SSE 6.9 mph - N/A   Clear
7:47 AM 66.2 °F - 62.6 °F 88% 29.96 in 10.0 mi SSE 9.2 mph - N/A   Clear
8:07 AM 68.0 °F - 64.4 °F 88% 29.96 in 10.0 mi SSE 9.2 mph - N/A   Clear
8:27 AM 69.8 °F - 64.4 °F 83% 29.95 in 10.0 mi SSE 9.2 mph - N/A   Clear
8:47 AM 71.6 °F - 64.4 °F 78% 29.95 in 10.0 mi SSE 9.2 mph - N/A   Clear
9:07 AM 71.6 °F - 64.4 °F 78% 29.95 in 10.0 mi South 10.4 mph - N/A   Clear
9:27 AM 73.4 °F - 64.4 °F 73% 29.95 in 10.0 mi South 11.5 mph - N/A   Clear
9:47 AM 75.2 °F - 64.4 °F 69% 29.95 in 10.0 mi SSE 8.1 mph - N/A   Clear
10:07 AM 75.2 °F - 64.4 °F 69% 29.95 in 10.0 mi South 10.4 mph - N/A   Clear
10:27 AM 78.8 °F - 66.2 °F 65% 29.95 in 10.0 mi SSE 9.2 mph - N/A   Clear
10:47 AM 78.8 °F - 66.2 °F 65% 29.94 in 10.0 mi SSE 9.2 mph - N/A   Clear
11:07 AM 80.6 °F 82.7 °F 66.2 °F 61% 29.94 in 10.0 mi SSE 10.4 mph - N/A   Clear
11:26 AM 80.6 °F 82.7 °F 66.2 °F 61% 29.93 in 10.0 mi SSE 8.1 mph - N/A   Clear
11:47 AM 82.4 °F 84.6 °F 66.2 °F 58% 29.93 in 10.0 mi South 8.1 mph - N/A   Clear
12:08 PM 84.2 °F - - N/A% - 10.0 mi South 8.1 mph - N/A   Clear
12:27 PM - - - N/A% - - SSW 8.1 mph - N/A   Unknown
12:47 PM 84.2 °F 86.6 °F 66.2 °F 55% 29.92 in 10.0 mi SW 5.8 mph - N/A   Clear
1:07 PM 86.0 °F 88.2 °F 66.2 °F 51% 29.91 in 10.0 mi SW 4.6 mph - N/A   Clear
1:27 PM 87.8 °F 91.4 °F 68.0 °F 52% 29.90 in 10.0 mi South 5.8 mph - N/A   Clear
1:47 PM 87.8 °F 91.4 °F 68.0 °F 52% 29.90 in 10.0 mi WSW 9.2 mph - N/A   Clear
2:07 PM 87.8 °F 90.4 °F 66.2 °F 49% 29.89 in 10.0 mi SSW 6.9 mph - N/A   Clear
2:27 PM 87.8 °F 90.4 °F 66.2 °F 49% 29.89 in 10.0 mi WSW 6.9 mph - N/A   Clear
2:47 PM 87.8 °F 91.4 °F 68.0 °F 52% 29.88 in 10.0 mi West 9.2 mph - N/A   Clear
3:07 PM 89.6 °F 93.4 °F 68.0 °F 49% 29.88 in 10.0 mi SW 5.8 mph - N/A   Clear
3:27 PM 89.6 °F 93.4 °F 68.0 °F 49% 29.88 in 10.0 mi WSW 4.6 mph - N/A   Clear
3:47 PM 89.6 °F 93.4 °F 68.0 °F 49% 29.87 in 10.0 mi WSW 4.6 mph - N/A   Clear
4:07 PM 89.6 °F 94.7 °F 69.8 °F 52% 29.86 in 10.0 mi WSW 4.6 mph - N/A   Clear
4:27 PM 89.6 °F 94.7 °F 69.8 °F 52% 29.86 in 10.0 mi Calm Calm - N/A   Clear
4:47 PM 89.6 °F 93.4 °F 68.0 °F 49% 29.86 in 10.0 mi Calm Calm - N/A   Clear
5:07 PM 89.6 °F 94.7 °F 69.8 °F 52% 29.85 in 10.0 mi Calm Calm - N/A   Clear
5:27 PM 87.8 °F 92.6 °F 69.8 °F 55% 29.85 in 10.0 mi Calm Calm - N/A   Clear
5:47 PM 89.6 °F 94.7 °F 69.8 °F 52% 29.85 in 10.0 mi Calm Calm - N/A   Clear
6:07 PM 89.6 °F 93.4 °F 68.0 °F 49% 29.85 in 10.0 mi Calm Calm - N/A   Clear
6:27 PM 89.6 °F 94.7 °F 69.8 °F 52% 29.85 in 10.0 mi Calm Calm - N/A   Clear
6:47 PM 87.8 °F 91.4 °F 68.0 °F 52% 29.85 in 10.0 mi Calm Calm - N/A   Clear
7:07 PM 82.4 °F 88.2 °F 73.4 °F 74% 29.85 in 10.0 mi NE 3.5 mph - N/A   Clear
7:27 PM 80.6 °F 84.6 °F 71.6 °F 74% 29.85 in 10.0 mi NNE 4.6 mph - N/A   Clear
7:47 PM 78.8 °F - 71.6 °F 78% 29.86 in 10.0 mi NNE 5.8 mph - N/A   Clear
8:07 PM 75.2 °F - 71.6 °F 89% 29.86 in 10.0 mi NE 5.8 mph - N/A   Clear
8:27 PM 75.2 °F - 69.8 °F 83% 29.86 in 10.0 mi NNE 6.9 mph - N/A   Clear
8:47 PM 75.2 °F - 69.8 °F 83% 29.87 in 10.0 mi NNE 5.8 mph - N/A   Clear
9:08 PM 73.4 °F - 69.8 °F 88% 29.87 in 10.0 mi NNE 4.6 mph - N/A   Clear
9:27 PM 71.6 °F - 69.8 °F 94% 29.86 in 10.0 mi NE 3.5 mph - N/A   Clear
9:47 PM 71.6 °F - 69.8 °F 94% 29.86 in 10.0 mi NE 5.8 mph - N/A   Clear
10:07 PM 71.6 °F - 69.8 °F 94% 29.87 in 10.0 mi NE 3.5 mph - N/A   Clear
10:27 PM 71.6 °F - 68.0 °F 88% 29.87 in 10.0 mi NE 3.5 mph - N/A   Clear
10:47 PM 71.6 °F - 68.0 °F 88% 29.87 in 10.0 mi ENE 4.6 mph - N/A   Clear
11:07 PM 69.8 °F - 68.0 °F 94% 29.87 in 10.0 mi Calm Calm - N/A   Clear
11:27 PM 69.8 °F - 66.2 °F 88% 29.88 in 10.0 mi Calm Calm - N/A   Clear
11:47 PM 71.6 °F - 68.0 °F 88% 29.88 in 10.0 mi Calm Calm - N/A   Clear